Tiempo cada hora Abanto

Hoy, 30 Octubre, Viernes

Tiempo Temperatura Precipitaciones Viento Presión Humedad
00:00 +9°C° 0 mm 1 mps 687 mmHg 71%
01:00 +9°C° 0 mm 1 mps 686 mmHg 70%
02:00 +8°C° 0 mm 1 mps 686 mmHg 70%
03:00 +8°C° 0 mm 1 mps 686 mmHg 70%
04:00 +8°C° 0 mm 1 mps 686 mmHg 68%
05:00 +8°C° 0 mm 1 mps 686 mmHg 66%
06:00 +7°C° 0 mm 1 mps 686 mmHg 69%
07:00 +9°C° 0 mm 1 mps 687 mmHg 60%
08:00 +12°C° 0 mm 1 mps 687 mmHg 51%
09:00 +14°C° 0 mm 1 mps 688 mmHg 42%
10:00 +16°C° 0 mm 1 mps 688 mmHg 38%
11:00 +18°C° 0 mm 2 mps 688 mmHg 33%
12:00 +19°C° 0 mm 2 mps 688 mmHg 28%
13:00 +20°C° 0 mm 2 mps 688 mmHg 27%
14:00 +21°C° 0 mm 2 mps 688 mmHg 25%
15:00 +23°C° 0 mm 2 mps 688 mmHg 24%
16:00 +19°C° 0 mm 2 mps 687 mmHg 32%
17:00 +16°C° 0 mm 2 mps 687 mmHg 39%
18:00 +14°C° 0 mm 1 mps 686 mmHg 47%
19:00 +13°C° 0 mm 1 mps 687 mmHg 49%
20:00 +13°C° 0 mm 1 mps 687 mmHg 51%
21:00 +12°C° 0 mm 1 mps 687 mmHg 53%
22:00 +12°C° 0 mm 1 mps 687 mmHg 54%
23:00 +11°C° 0 mm 1 mps 686 mmHg 54%

Mañana, 31 Octubre, Sábado

Tiempo Temperatura Precipitaciones Viento Presión Humedad
00:00 +11°C° 0 mm 1 mps 686 mmHg 55%
01:00 +11°C° 0 mm 1 mps 686 mmHg 55%
02:00 +10°C° 0 mm 1 mps 686 mmHg 55%
03:00 +10°C° 0 mm 1 mps 685 mmHg 55%
04:00 +10°C° 0 mm 1 mps 685 mmHg 56%
05:00 +10°C° 0 mm 1 mps 685 mmHg 57%
06:00 +10°C° 0 mm 1 mps 686 mmHg 59%
07:00 +12°C° 0 mm 2 mps 686 mmHg 53%
08:00 +14°C° 0 mm 2 mps 687 mmHg 48%
09:00 +16°C° 0 mm 2 mps 687 mmHg 42%
10:00 +17°C° 0 mm 3 mps 687 mmHg 40%
11:00 +19°C° 0 mm 4 mps 687 mmHg 38%
12:00 +20°C° 0 mm 4 mps 688 mmHg 36%
13:00 +20°C° 0 mm 4 mps 687 mmHg 34%
14:00 +21°C° 0 mm 4 mps 687 mmHg 33%
15:00 +21°C° 0 mm 4 mps 687 mmHg 32%
16:00 +19°C° 0 mm 3 mps 686 mmHg 38%
17:00 +17°C° 0 mm 3 mps 686 mmHg 45%
18:00 +14°C° 0 mm 3 mps 686 mmHg 51%
19:00 +14°C° 0 mm 2 mps 686 mmHg 55%
20:00 +14°C° 0 mm 2 mps 686 mmHg 59%
21:00 +13°C° 0 mm 2 mps 686 mmHg 63%
22:00 +12°C° 0 mm 2 mps 686 mmHg 64%
23:00 +12°C° 0 mm 2 mps 686 mmHg 66%

Pasado mañana, 1 Noviembre, Domingo

Tiempo Temperatura Precipitaciones Viento Presión Humedad
00:00 +12°C° 0 mm 2 mps 685 mmHg 67%
01:00 +11°C° 0 mm 1 mps 685 mmHg 69%
02:00 +11°C° 0 mm 1 mps 685 mmHg 72%
03:00 +11°C° 0 mm 1 mps 685 mmHg 74%
04:00 +10°C° 0 mm 1 mps 685 mmHg 75%
05:00 +10°C° 0 mm 1 mps 685 mmHg 75%
06:00 +10°C° 0 mm 1 mps 685 mmHg 76%
07:00 +12°C° 0 mm 2 mps 685 mmHg 68%
08:00 +14°C° 0 mm 2 mps 686 mmHg 61%
09:00 +16°C° 0 mm 2 mps 687 mmHg 53%
10:00 +17°C° 0 mm 2 mps 687 mmHg 50%
11:00 +18°C° 0 mm 3 mps 687 mmHg 47%
12:00 +20°C° 0 mm 4 mps 687 mmHg 44%
13:00 +20°C° 0 mm 4 mps 687 mmHg 43%
14:00 +21°C° 0 mm 4 mps 686 mmHg 42%
15:00 +21°C° 0 mm 4 mps 686 mmHg 41%
16:00 +19°C° 0 mm 3 mps 686 mmHg 47%
17:00 +18°C° 0 mm 3 mps 685 mmHg 52%
18:00 +16°C° 0 mm 2 mps 685 mmHg 58%
19:00 +15°C° 0 mm 2 mps 685 mmHg 60%
20:00 +15°C° 0 mm 2 mps 685 mmHg 62%
21:00 +14°C° 0 mm 2 mps 685 mmHg 64%
22:00 +14°C° 0 mm 2 mps 685 mmHg 65%
23:00 +13°C° 0 mm 2 mps 685 mmHg 66%

2 Noviembre, Lunes

Tiempo Temperatura Precipitaciones Viento Presión Humedad
00:00 +13°C° 0 mm 2 mps 685 mmHg 67%
01:00 +12°C° 0 mm 2 mps 684 mmHg 68%
02:00 +12°C° 0 mm 2 mps 684 mmHg 69%
03:00 +12°C° 0 mm 2 mps 684 mmHg 70%
04:00 +12°C° 0 mm 2 mps 684 mmHg 71%
05:00 +10°C° 0 mm 2 mps 684 mmHg 72%
06:00 +10°C° 0 mm 2 mps 684 mmHg 74%
07:00 +12°C° 0 mm 3 mps 684 mmHg 68%
08:00 +14°C° 0 mm 4 mps 685 mmHg 62%
09:00 +15°C° 0 mm 4 mps 685 mmHg 56%
10:00 +17°C° 0 mm 5 mps 685 mmHg 53%
11:00 +19°C° 0 mm 5 mps 686 mmHg 51%
12:00 +20°C° 0 mm 6 mps 686 mmHg 48%
13:00 +20°C° 0 mm 6 mps 685 mmHg 49%
14:00 +20°C° 0 mm 5 mps 685 mmHg 50%
15:00 +20°C° 0 mm 5 mps 685 mmHg 51%
16:00 +19°C° 0 mm 4 mps 685 mmHg 57%
17:00 +18°C° 0 mm 4 mps 685 mmHg 62%
18:00 +16°C° 0 mm 3 mps 685 mmHg 68%
19:00 +16°C° 0 mm 2 mps 685 mmHg 71%
20:00 +15°C° 0 mm 2 mps 685 mmHg 75%
21:00 +14°C° 0 mm 1 mps 685 mmHg 79%
22:00 +14°C° 0 mm 1 mps 685 mmHg 81%
23:00 +13°C° 0 mm 1 mps 684 mmHg 84%

3 Noviembre, Martes

Tiempo Temperatura Precipitaciones Viento Presión Humedad
00:00 +11°C° 0 mm 0 mps 684 mmHg 87%
01:00 +12°C° 0 mm 1 mps 684 mmHg 87%
02:00 +12°C° 0 mm 1 mps 684 mmHg 87%
03:00 +12°C° 0 mm 1 mps 684 mmHg 87%
04:00 +12°C° 0.4 mm 1 mps 684 mmHg 88%
05:00 +10°C° 0.4 mm 2 mps 684 mmHg 90%
06:00 +10°C° 0.4 mm 2 mps 685 mmHg 91%
07:00 +9°C° 0.9 mm 2 mps 685 mmHg 91%
08:00 +9°C° 0.9 mm 2 mps 685 mmHg 90%
09:00 +9°C° 0.9 mm 2 mps 685 mmHg 89%
10:00 +9°C° 0.2 mm 3 mps 685 mmHg 85%
11:00 +9°C° 0.2 mm 3 mps 686 mmHg 81%
12:00 +10°C° 0.2 mm 3 mps 686 mmHg 76%
13:00 +10°C° 0 mm 4 mps 686 mmHg 74%
14:00 +10°C° 0 mm 4 mps 686 mmHg 72%
15:00 +8°C° 0 mm 4 mps 685 mmHg 71%
16:00 +8°C° 0 mm 5 mps 686 mmHg 70%
17:00 +7°C° 0 mm 6 mps 686 mmHg 70%
18:00 +6°C° 0 mm 7 mps 686 mmHg 70%
19:00 +5°C° 0 mm 6 mps 687 mmHg 74%
20:00 +5°C° 0 mm 5 mps 687 mmHg 78%
21:00 +3°C° 0 mm 5 mps 687 mmHg 83%
22:00 +3°C° 0 mm 4 mps 686 mmHg 83%
23:00 +3°C° 0 mm 3 mps 686 mmHg 83%

4 Noviembre, Miércoles

Tiempo Temperatura Precipitaciones Viento Presión Humedad
00:00 +3°C° 0 mm 2 mps 686 mmHg 84%
01:00 +3°C° 0 mm 2 mps 685 mmHg 81%
02:00 +3°C° 0 mm 2 mps 685 mmHg 79%
03:00 +3°C° 0 mm 2 mps 684 mmHg 76%
04:00 +3°C° 0 mm 2 mps 684 mmHg 76%
05:00 +3°C° 0 mm 2 mps 684 mmHg 75%
06:00 +3°C° 0 mm 2 mps 683 mmHg 74%
07:00 +3°C° 0.1 mm 2 mps 683 mmHg 74%
08:00 +3°C° 0.1 mm 2 mps 683 mmHg 74%
09:00 +2°C° 0.1 mm 3 mps 682 mmHg 74%
10:00 +3°C° 0.8 mm 2 mps 682 mmHg 78%
11:00 +3°C° 0.8 mm 2 mps 681 mmHg 81%
12:00 +3°C° 0.8 mm 2 mps 681 mmHg 84%
13:00 +2°C° 2.2 mm 3 mps 680 mmHg 88%
14:00 +2°C° 2.2 mm 3 mps 680 mmHg 91%
15:00 +1°C° 2.2 mm 3 mps 679 mmHg 95%
16:00 +2°C° 2.2 mm 3 mps 679 mmHg 95%
17:00 +1°C° 2.2 mm 4 mps 679 mmHg 96%
18:00 +1°C° 2.2 mm 4 mps 679 mmHg 96%
19:00 +3°C° 1.1 mm 4 mps 679 mmHg 96%
20:00 +2°C° 1.1 mm 5 mps 679 mmHg 95%
21:00 +2°C° 1.1 mm 5 mps 678 mmHg 95%
22:00 +2°C° 1 mm 6 mps 678 mmHg 94%
23:00 +3°C° 1 mm 7 mps 678 mmHg 93%
Mostrar más

Necesitamos Su Consentimiento

Meteoprog y nuestros Proveedores de Servicios pueden almacenar y acceder a sus datos personales como cookies, identificadores de dispositivo u otras tecnologías similares de su dispositivo y procesar dichos datos para personalizar contenido y anuncios, además de ofrecer funciones de redes sociales y analizar el tráfico.

  • Almacenar y/o acceder a información en su dispositivo

    Se puede almacenar o acceder a cookies, identificadores de dispositivo u otra información de su dispositivo para los fines anteriormente indicados.

  • Anuncios y contenido personalizados, medición de anuncios y contenido, percepciones del público, y desarrollo de productos

    Los anuncios y el contenido pueden personalizarse en base a su perfil. Se pueden añadir más datos para personalizar mejor los anuncios y contenidos. Se puede medir el rendimiento de los anuncios y contenidos. Se puede obtener la percepción sobre el público que ha visto los anuncios y contenidos. Dichos datos pueden usarse para desarrollar o mejorar la experiencia del usuario, sistemas y software.

Al hacer clic en ‘Estoy De Acuerdo’ usted permitirá el uso de las cookies, identificadores de dispositivo, balizas web u otras tecnologías similares indicadas. Su configuración puede cambiarse desde el navegador de su dispositivo.

Para ciertos fines, los intereses legítimos pueden ser considerados por encima del consentimiento. Puede leer más sobre ello en nuestra Política de Privacidad y Cookies.